Year,Month,Day,Hour,Minute,Value (Times are PST for temperature in C)
2010,02,17,00,01,2.20
2010,02,17,00,02,2.20
2010,02,17,00,03,2.20
2010,02,17,00,05,2.20
2010,02,17,00,06,2.20
2010,02,17,00,07,2.20
2010,02,17,00,08,2.20
2010,02,17,00,09,2.20
2010,02,17,00,12,2.20
2010,02,17,00,13,2.20
2010,02,17,00,14,2.20
2010,02,17,00,15,2.20
2010,02,17,00,17,2.20
2010,02,17,00,18,2.20
2010,02,17,00,20,2.20
2010,02,17,00,21,2.20
2010,02,17,00,23,2.20
2010,02,17,00,24,2.20
2010,02,17,00,25,2.20
2010,02,17,00,26,2.20
2010,02,17,00,28,2.20
2010,02,17,00,30,2.20
2010,02,17,00,31,2.20
2010,02,17,00,32,2.20
2010,02,17,00,34,2.20
2010,02,17,00,35,2.20
2010,02,17,00,36,2.20
2010,02,17,00,37,2.20
2010,02,17,00,39,2.30
2010,02,17,00,40,2.30
2010,02,17,00,41,2.30
2010,02,17,00,42,2.30
2010,02,17,00,43,2.30
2010,02,17,00,45,2.30
2010,02,17,00,46,2.30
2010,02,17,00,47,2.30
2010,02,17,00,48,2.30
2010,02,17,00,49,2.30
2010,02,17,00,52,2.30
2010,02,17,00,53,2.20
2010,02,17,00,54,2.20
2010,02,17,00,55,2.20
2010,02,17,00,56,2.20
2010,02,17,00,58,2.10
2010,02,17,01,00,2.10
2010,02,17,01,01,2.10
2010,02,17,01,03,2.00
2010,02,17,01,04,2.00
2010,02,17,01,05,2.10
2010,02,17,01,06,2.10
2010,02,17,01,07,2.10
2010,02,17,01,09,2.10
2010,02,17,01,10,2.10
2010,02,17,01,11,2.10
2010,02,17,01,12,2.10
2010,02,17,01,13,2.10
2010,02,17,01,15,2.10
2010,02,17,01,16,2.00
2010,02,17,01,17,2.00
2010,02,17,01,18,2.00
2010,02,17,01,20,1.90
2010,02,17,01,21,1.90
2010,02,17,01,22,1.80
2010,02,17,01,23,1.80
2010,02,17,01,24,1.80
2010,02,17,01,25,1.70
2010,02,17,01,27,1.70
2010,02,17,01,28,1.70
2010,02,17,01,30,1.60
2010,02,17,01,31,1.60
2010,02,17,01,33,1.60
2010,02,17,01,34,1.60
2010,02,17,01,35,1.60
2010,02,17,01,36,1.60
2010,02,17,01,38,1.60
2010,02,17,01,39,1.60
2010,02,17,01,40,1.60
2010,02,17,01,41,1.50
2010,02,17,01,42,1.50
2010,02,17,01,44,1.50
2010,02,17,01,45,1.40
2010,02,17,01,46,1.40
2010,02,17,01,47,1.40
2010,02,17,01,49,1.40
2010,02,17,01,50,1.40
2010,02,17,01,51,1.40
2010,02,17,01,52,1.30
2010,02,17,01,53,1.30
2010,02,17,01,54,1.30
2010,02,17,01,55,1.30
2010,02,17,01,57,1.30
2010,02,17,01,58,1.20
2010,02,17,02,00,1.20
2010,02,17,02,02,1.20
2010,02,17,02,03,1.20
2010,02,17,02,04,1.20
2010,02,17,02,05,1.20
2010,02,17,02,07,1.10
2010,02,17,02,08,1.10
2010,02,17,02,10,1.10
2010,02,17,02,11,1.10
2010,02,17,02,12,1.10
2010,02,17,02,14,1.10
2010,02,17,02,15,1.10
2010,02,17,02,16,1.10
2010,02,17,02,17,1.10
2010,02,17,02,18,1.10
2010,02,17,02,20,1.10
2010,02,17,02,21,1.00
2010,02,17,02,22,1.00
2010,02,17,02,23,1.00
2010,02,17,02,24,1.00
2010,02,17,02,26,1.00
2010,02,17,02,27,1.10
2010,02,17,02,28,1.20
2010,02,17,02,30,1.30
2010,02,17,02,31,1.40
2010,02,17,02,33,1.40
2010,02,17,02,34,1.50
2010,02,17,02,35,1.60
2010,02,17,02,36,1.60
2010,02,17,02,37,1.60
2010,02,17,02,39,1.60
2010,02,17,02,40,1.60
2010,02,17,02,41,1.60
2010,02,17,02,42,1.60
2010,02,17,02,43,1.60
2010,02,17,02,45,1.60
2010,02,17,02,46,1.60
2010,02,17,02,47,1.70
2010,02,17,02,48,1.70
2010,02,17,02,50,1.70
2010,02,17,02,51,1.70
2010,02,17,02,52,1.70
2010,02,17,02,53,1.70
2010,02,17,02,55,1.60
2010,02,17,02,56,1.60
2010,02,17,02,57,1.50
2010,02,17,02,58,1.50
2010,02,17,03,00,1.40
2010,02,17,03,02,1.40
2010,02,17,03,03,1.40
2010,02,17,03,04,1.40
2010,02,17,03,05,1.40
2010,02,17,03,06,1.40
2010,02,17,03,08,1.40
2010,02,17,03,10,1.40
2010,02,17,03,11,1.40
2010,02,17,03,13,1.40
2010,02,17,03,14,1.30
2010,02,17,03,15,1.30
2010,02,17,03,16,1.30
2010,02,17,03,17,1.30
2010,02,17,03,19,1.20
2010,02,17,03,20,1.20
2010,02,17,03,21,1.20
2010,02,17,03,22,1.10
2010,02,17,03,23,1.10
2010,02,17,03,25,1.10
2010,02,17,03,26,1.10
2010,02,17,03,27,1.10
2010,02,17,03,28,1.10
2010,02,17,03,30,1.10
2010,02,17,03,32,1.00
2010,02,17,03,33,1.00
2010,02,17,03,34,0.90
2010,02,17,03,35,0.90
2010,02,17,03,36,0.90
2010,02,17,03,38,1.00
2010,02,17,03,40,1.00
2010,02,17,03,41,1.10
2010,02,17,03,43,1.10
2010,02,17,03,44,1.10
2010,02,17,03,45,1.20
2010,02,17,03,46,1.30
2010,02,17,03,47,1.30
2010,02,17,03,49,1.30
2010,02,17,03,50,1.40
2010,02,17,03,51,1.40
2010,02,17,03,52,1.40
2010,02,17,03,53,1.50
2010,02,17,03,55,1.50
2010,02,17,03,56,1.50
2010,02,17,03,57,1.50
2010,02,17,03,58,1.50
2010,02,17,03,59,1.50
2010,02,17,04,01,1.50
2010,02,17,04,02,1.50
2010,02,17,04,03,1.60
2010,02,17,04,05,1.60
2010,02,17,04,06,1.70
2010,02,17,04,07,1.70
2010,02,17,04,08,1.70
2010,02,17,04,09,1.80
2010,02,17,04,11,1.80
2010,02,17,04,12,1.80
2010,02,17,04,13,1.90
2010,02,17,04,14,1.90
2010,02,17,04,16,1.90
2010,02,17,04,17,2.00
2010,02,17,04,18,2.10
2010,02,17,04,20,2.10
2010,02,17,04,21,2.10
2010,02,17,04,22,2.10
2010,02,17,04,23,2.20
2010,02,17,04,24,2.20
2010,02,17,04,26,2.20
2010,02,17,04,27,2.20
2010,02,17,04,28,2.30
2010,02,17,04,30,2.30
2010,02,17,04,31,2.30
2010,02,17,04,33,2.30
2010,02,17,04,34,2.40
2010,02,17,04,35,2.40
2010,02,17,04,36,2.40
2010,02,17,04,38,2.40
2010,02,17,04,39,2.40
2010,02,17,04,40,2.50
2010,02,17,04,41,2.60
2010,02,17,04,42,2.70
2010,02,17,04,44,2.70
2010,02,17,04,45,2.70
2010,02,17,04,46,2.80
2010,02,17,04,47,2.80
2010,02,17,04,48,2.80
2010,02,17,04,50,2.90
2010,02,17,04,51,2.90
2010,02,17,04,52,3.00
2010,02,17,04,53,3.00
2010,02,17,04,54,3.00
2010,02,17,04,56,3.00
2010,02,17,04,57,3.00
2010,02,17,04,58,3.00
2010,02,17,05,00,3.10
2010,02,17,05,02,3.10
2010,02,17,05,03,3.10
2010,02,17,05,04,3.10
2010,02,17,05,05,3.20
2010,02,17,05,07,3.20
2010,02,17,05,08,3.20
2010,02,17,05,10,3.20
2010,02,17,05,11,3.30
2010,02,17,05,13,3.30
2010,02,17,05,14,3.30
2010,02,17,05,15,3.30
2010,02,17,05,16,3.40
2010,02,17,05,18,3.40
2010,02,17,05,20,3.40
2010,02,17,05,21,3.40
2010,02,17,05,22,3.40
2010,02,17,05,24,3.40
2010,02,17,05,25,3.40
2010,02,17,05,26,3.40
2010,02,17,05,27,3.40
2010,02,17,05,29,3.40
2010,02,17,05,30,3.40
2010,02,17,05,31,3.40
2010,02,17,05,32,3.40
2010,02,17,05,33,3.40
2010,02,17,05,34,3.40
2010,02,17,05,36,3.40
2010,02,17,05,37,3.40
2010,02,17,05,38,3.40
2010,02,17,05,39,3.40
2010,02,17,05,42,3.40
2010,02,17,05,43,3.40
2010,02,17,05,44,3.40
2010,02,17,05,45,3.40
2010,02,17,05,46,3.40
2010,02,17,05,47,3.40
2010,02,17,05,49,3.40
2010,02,17,05,50,3.40
2010,02,17,05,51,3.40
2010,02,17,05,52,3.40
2010,02,17,05,54,3.40
2010,02,17,05,55,3.50
2010,02,17,05,56,3.50
2010,02,17,05,57,3.60
2010,02,17,05,59,3.60
2010,02,17,06,00,3.60
2010,02,17,06,01,3.60
2010,02,17,06,02,3.70
2010,02,17,06,04,3.70
2010,02,17,06,05,3.70
2010,02,17,06,06,3.70
2010,02,17,06,07,3.70
2010,02,17,06,09,3.70
2010,02,17,06,10,3.80
2010,02,17,06,11,3.80
2010,02,17,06,12,3.70
2010,02,17,06,14,3.80
2010,02,17,06,15,3.80
2010,02,17,06,16,3.80
2010,02,17,06,17,3.80
2010,02,17,06,18,3.80
2010,02,17,06,20,3.80
2010,02,17,06,21,3.80
2010,02,17,06,22,3.80
2010,02,17,06,23,3.80
2010,02,17,06,24,3.80
2010,02,17,06,25,3.70
2010,02,17,06,27,3.70
2010,02,17,06,28,3.70
2010,02,17,06,30,3.70
2010,02,17,06,31,3.70
2010,02,17,06,32,3.70
2010,02,17,06,34,3.70
2010,02,17,06,35,3.70
2010,02,17,06,36,3.80
2010,02,17,06,37,3.80
2010,02,17,06,39,3.80
2010,02,17,06,40,3.80
2010,02,17,06,41,3.80
2010,02,17,06,42,3.80
2010,02,17,06,44,3.80
2010,02,17,06,45,3.80
2010,02,17,06,46,3.90
2010,02,17,06,47,3.90
2010,02,17,06,48,4.00
2010,02,17,06,50,4.00
2010,02,17,06,51,4.00
2010,02,17,06,52,4.10
2010,02,17,06,53,4.10
2010,02,17,06,54,4.00
2010,02,17,06,55,4.00
2010,02,17,06,57,4.00
2010,02,17,06,58,3.90
2010,02,17,07,00,3.90
2010,02,17,07,03,3.80
2010,02,17,07,04,3.80
2010,02,17,07,05,3.70
2010,02,17,07,06,3.70
2010,02,17,07,08,3.70
2010,02,17,07,09,3.70
2010,02,17,07,10,3.60
2010,02,17,07,11,3.60
2010,02,17,07,12,3.50
2010,02,17,07,14,3.50
2010,02,17,07,15,3.50
2010,02,17,07,16,3.40
2010,02,17,07,17,3.40
2010,02,17,07,18,3.40
2010,02,17,07,20,3.40
2010,02,17,07,21,3.30
2010,02,17,07,22,3.30
2010,02,17,07,23,3.30
2010,02,17,07,24,3.30
2010,02,17,07,26,3.30
2010,02,17,07,27,3.20
2010,02,17,07,28,3.20
2010,02,17,07,29,3.20
2010,02,17,07,32,3.10
2010,02,17,07,33,3.10
2010,02,17,07,34,3.10
2010,02,17,07,35,3.10
2010,02,17,07,36,3.10
2010,02,17,07,38,3.10
2010,02,17,07,40,3.00
2010,02,17,07,41,3.10
2010,02,17,07,43,3.10
2010,02,17,07,44,3.10
2010,02,17,07,45,3.20
2010,02,17,07,46,3.20
2010,02,17,07,47,3.20
2010,02,17,07,49,3.20
2010,02,17,07,50,3.30
2010,02,17,07,51,3.30
2010,02,17,07,52,3.30
2010,02,17,07,54,3.30
2010,02,17,07,55,3.30
2010,02,17,07,56,3.30
2010,02,17,07,57,3.30
2010,02,17,07,58,3.40
2010,02,17,08,00,3.40
2010,02,17,08,02,3.60
2010,02,17,08,03,3.60
2010,02,17,08,04,3.70
2010,02,17,08,05,3.70
2010,02,17,08,07,3.70
2010,02,17,08,08,3.80
2010,02,17,08,10,3.80
2010,02,17,08,12,3.90
2010,02,17,08,13,3.90
2010,02,17,08,14,3.90
2010,02,17,08,15,4.00
2010,02,17,08,16,4.10
2010,02,17,08,17,4.10
2010,02,17,08,19,4.20
2010,02,17,08,20,4.20
2010,02,17,08,21,4.20
2010,02,17,08,22,4.20
2010,02,17,08,23,4.20
2010,02,17,08,25,4.20
2010,02,17,08,26,4.30
2010,02,17,08,27,4.40
2010,02,17,08,28,4.40
2010,02,17,08,30,4.40
2010,02,17,08,31,4.50
2010,02,17,08,32,4.60
2010,02,17,08,33,4.60
2010,02,17,08,34,4.60
2010,02,17,08,36,4.70
2010,02,17,08,37,4.70
2010,02,17,08,38,4.80
2010,02,17,08,39,4.80
2010,02,17,08,42,4.80
2010,02,17,08,43,4.90
2010,02,17,08,44,4.90
2010,02,17,08,45,4.90
2010,02,17,08,47,5.00
2010,02,17,08,48,5.00
2010,02,17,08,50,5.10
2010,02,17,08,51,5.10
2010,02,17,08,53,5.10
2010,02,17,08,54,5.10
2010,02,17,08,55,5.20
2010,02,17,08,56,5.20
2010,02,17,08,57,5.20
2010,02,17,08,59,5.20
2010,02,17,09,00,5.20
2010,02,17,09,02,5.30
2010,02,17,09,04,5.30
2010,02,17,09,05,5.30
2010,02,17,09,06,5.40
2010,02,17,09,07,5.40
2010,02,17,09,08,5.50
2010,02,17,09,10,5.60
2010,02,17,09,11,5.60
2010,02,17,09,12,5.70
2010,02,17,09,13,5.70
2010,02,17,09,14,5.70
2010,02,17,09,16,5.70
2010,02,17,09,17,5.80
2010,02,17,09,18,5.80
2010,02,17,09,19,5.80
2010,02,17,09,22,5.80
2010,02,17,09,23,5.90
2010,02,17,09,24,5.90
2010,02,17,09,25,5.90
2010,02,17,09,27,6.00
2010,02,17,09,28,6.00
2010,02,17,09,30,6.10
2010,02,17,09,31,6.10
2010,02,17,09,32,6.10
2010,02,17,09,34,6.10
2010,02,17,09,35,6.10
2010,02,17,09,36,6.20
2010,02,17,09,37,6.20
2010,02,17,09,39,6.20
2010,02,17,09,40,6.20
2010,02,17,09,41,6.20
2010,02,17,09,42,6.30
2010,02,17,09,43,6.30
2010,02,17,09,45,6.30
2010,02,17,09,46,6.40
2010,02,17,09,47,6.40
2010,02,17,09,48,6.40
2010,02,17,09,50,6.40
2010,02,17,09,51,6.40
2010,02,17,09,52,6.40
2010,02,17,09,53,6.50
2010,02,17,09,54,6.50
2010,02,17,09,55,6.50
2010,02,17,09,57,6.60
2010,02,17,09,58,6.60
2010,02,17,10,00,6.70
2010,02,17,10,01,6.70
2010,02,17,10,03,6.70
2010,02,17,10,04,6.80
2010,02,17,10,05,6.80
2010,02,17,10,06,6.80
2010,02,17,10,08,6.80
2010,02,17,10,09,6.90
2010,02,17,10,10,6.90
2010,02,17,10,11,6.90
2010,02,17,10,12,6.90
2010,02,17,10,14,6.90
2010,02,17,10,15,6.90
2010,02,17,10,16,7.00
2010,02,17,10,17,7.00
2010,02,17,10,18,7.00
2010,02,17,10,20,7.00
2010,02,17,10,21,7.10
2010,02,17,10,22,7.10
2010,02,17,10,23,7.10
2010,02,17,10,25,7.10
2010,02,17,10,26,7.10
2010,02,17,10,27,7.10
2010,02,17,10,28,7.10
2010,02,17,10,30,7.10
2010,02,17,10,32,7.10
2010,02,17,10,33,7.10
2010,02,17,10,34,7.10
2010,02,17,10,35,7.20
2010,02,17,10,37,7.30
2010,02,17,10,38,7.20
2010,02,17,10,39,7.20
2010,02,17,10,42,7.10
2010,02,17,10,43,7.10
2010,02,17,10,44,7.00
2010,02,17,10,45,7.10
2010,02,17,10,46,7.10
2010,02,17,10,48,7.00
2010,02,17,10,50,7.10
2010,02,17,10,51,7.10
2010,02,17,10,53,7.10
2010,02,17,10,54,7.10
2010,02,17,10,55,7.10
2010,02,17,10,56,7.10
2010,02,17,10,58,7.10
2010,02,17,11,00,7.10
2010,02,17,11,01,7.10
2010,02,17,11,03,7.00
2010,02,17,11,04,7.00
2010,02,17,11,05,6.90
2010,02,17,11,06,7.00
2010,02,17,11,07,7.00
2010,02,17,11,09,7.10
2010,02,17,11,10,7.10
2010,02,17,11,11,7.10
2010,02,17,11,12,7.10
2010,02,17,11,13,7.10
2010,02,17,11,15,7.20
2010,02,17,11,16,7.30
2010,02,17,11,17,7.30
2010,02,17,11,18,7.40
2010,02,17,11,20,7.40
2010,02,17,11,21,7.60
2010,02,17,11,22,7.60
2010,02,17,11,23,7.70
2010,02,17,11,24,7.70
2010,02,17,11,26,7.70
2010,02,17,11,27,7.80
2010,02,17,11,28,7.80
2010,02,17,11,30,7.90
2010,02,17,11,31,7.90
2010,02,17,11,33,7.90
2010,02,17,11,34,7.90
2010,02,17,11,35,8.00
2010,02,17,11,36,8.10
2010,02,17,11,37,8.10
2010,02,17,11,39,8.10
2010,02,17,11,40,8.10
2010,02,17,11,41,8.10
2010,02,17,11,42,8.10
2010,02,17,11,43,8.10
2010,02,17,11,45,8.10
2010,02,17,11,46,8.10
2010,02,17,11,47,8.10
2010,02,17,11,48,8.10
2010,02,17,11,50,8.20
2010,02,17,11,51,8.20
2010,02,17,11,52,8.30
2010,02,17,11,53,8.30
2010,02,17,11,54,8.30
2010,02,17,11,56,8.30
2010,02,17,11,57,8.30
2010,02,17,11,58,8.40
2010,02,17,11,59,8.40
2010,02,17,12,01,8.40
2010,02,17,12,02,8.30
2010,02,17,12,03,8.30
2010,02,17,12,05,8.30
2010,02,17,12,06,8.30
2010,02,17,12,07,8.30
2010,02,17,12,08,8.30
2010,02,17,12,10,8.40
2010,02,17,12,11,8.40
2010,02,17,12,12,8.50
2010,02,17,12,13,8.60
2010,02,17,12,14,8.60
2010,02,17,12,16,8.50
2010,02,17,12,17,8.50
2010,02,17,12,18,8.50
2010,02,17,12,20,8.50
2010,02,17,12,22,8.50
2010,02,17,12,23,8.60
2010,02,17,12,24,8.70
2010,02,17,12,25,8.70
2010,02,17,12,26,8.70
2010,02,17,12,28,8.80
2010,02,17,12,31,8.80
2010,02,17,12,32,8.80
2010,02,17,12,33,8.80
2010,02,17,12,35,8.80
2010,02,17,12,36,8.80
2010,02,17,12,37,8.90
2010,02,17,12,38,8.90
2010,02,17,12,40,8.90
2010,02,17,12,42,8.90
2010,02,17,12,43,9.00
2010,02,17,12,44,9.00
2010,02,17,12,45,9.10
2010,02,17,12,46,9.10
2010,02,17,12,48,9.10
2010,02,17,12,50,9.10
2010,02,17,12,51,9.10
2010,02,17,12,53,9.10
2010,02,17,12,54,9.10
2010,02,17,12,55,9.10
2010,02,17,12,56,9.10
2010,02,17,12,57,9.10
2010,02,17,12,59,9.10
2010,02,17,13,00,9.10
2010,02,17,13,01,9.10
2010,02,17,13,02,9.10
2010,02,17,13,03,9.20
2010,02,17,13,05,9.20
2010,02,17,13,06,9.20
2010,02,17,13,07,9.20
2010,02,17,13,08,9.20
2010,02,17,13,09,9.20
2010,02,17,13,11,9.20
2010,02,17,13,12,9.30
2010,02,17,13,13,9.30
2010,02,17,13,14,9.30
2010,02,17,13,16,9.30
2010,02,17,13,17,9.30
2010,02,17,13,18,9.30
2010,02,17,13,20,9.40
2010,02,17,13,22,9.40
2010,02,17,13,23,9.40
2010,02,17,13,24,9.40
2010,02,17,13,26,9.40
2010,02,17,13,27,9.40
2010,02,17,13,28,9.40
2010,02,17,13,30,9.40
2010,02,17,13,31,9.50
2010,02,17,13,33,9.50
2010,02,17,13,34,9.60
2010,02,17,13,35,9.60
2010,02,17,13,36,9.60
2010,02,17,13,37,9.60
2010,02,17,13,39,9.60
2010,02,17,13,40,9.60
2010,02,17,13,41,9.70
2010,02,17,13,42,9.70
2010,02,17,13,43,9.80
2010,02,17,13,45,9.80
2010,02,17,13,46,9.80
2010,02,17,13,47,9.80
2010,02,17,13,48,9.80
2010,02,17,13,50,9.80
2010,02,17,13,51,9.80
2010,02,17,13,52,9.80
2010,02,17,13,53,9.80
2010,02,17,13,54,9.80
2010,02,17,13,55,9.80
2010,02,17,13,57,9.90
2010,02,17,13,58,9.90
2010,02,17,14,00,9.90
2010,02,17,14,01,9.90
2010,02,17,14,03,9.90
2010,02,17,14,04,10.00
2010,02,17,14,05,10.00
2010,02,17,14,06,10.00
2010,02,17,14,08,10.00
2010,02,17,14,09,10.10
2010,02,17,14,10,10.10
2010,02,17,14,11,10.10
2010,02,17,14,12,10.10
2010,02,17,14,14,10.10
2010,02,17,14,15,10.10
2010,02,17,14,16,10.10
2010,02,17,14,17,10.10
2010,02,17,14,18,10.10
2010,02,17,14,20,10.10
2010,02,17,14,21,10.10
2010,02,17,14,23,10.10
2010,02,17,14,24,10.10
2010,02,17,14,25,10.10
2010,02,17,14,26,10.00
2010,02,17,14,27,9.90
2010,02,17,14,29,9.90
2010,02,17,14,30,9.90
2010,02,17,14,31,9.90
2010,02,17,14,32,9.90
2010,02,17,14,33,10.00
2010,02,17,14,35,10.00
2010,02,17,14,36,10.00
2010,02,17,14,37,10.00
2010,02,17,14,38,10.00
2010,02,17,14,40,9.90
2010,02,17,14,42,9.90
2010,02,17,14,43,9.90
2010,02,17,14,44,9.90
2010,02,17,14,46,9.90
2010,02,17,14,47,9.90
2010,02,17,14,48,9.90
2010,02,17,14,50,10.00
2010,02,17,14,52,10.00
2010,02,17,14,53,10.00
2010,02,17,14,54,10.10
2010,02,17,14,55,10.10
2010,02,17,14,57,10.10
2010,02,17,14,58,10.10
2010,02,17,15,00,10.10
2010,02,17,15,03,10.20
2010,02,17,15,04,10.20
2010,02,17,15,05,10.20
2010,02,17,15,06,10.20
2010,02,17,15,08,10.20
2010,02,17,15,09,10.20
2010,02,17,15,10,10.20
2010,02,17,15,11,10.30
2010,02,17,15,12,10.30
2010,02,17,15,14,10.30
2010,02,17,15,15,10.30
2010,02,17,15,16,10.40
2010,02,17,15,17,10.40
2010,02,17,15,19,10.40
2010,02,17,15,20,10.40
2010,02,17,15,21,10.40
2010,02,17,15,22,10.40
2010,02,17,15,23,10.40
2010,02,17,15,25,10.40
2010,02,17,15,26,10.40
2010,02,17,15,27,10.40
2010,02,17,15,28,10.40
2010,02,17,15,30,10.40
2010,02,17,15,31,10.40
2010,02,17,15,33,10.40
2010,02,17,15,34,10.40
2010,02,17,15,35,10.40
2010,02,17,15,36,10.40
2010,02,17,15,37,10.40
2010,02,17,15,39,10.40
2010,02,17,15,40,10.40
2010,02,17,15,41,10.40
2010,02,17,15,42,10.40
2010,02,17,15,44,10.40
2010,02,17,15,45,10.50
2010,02,17,15,46,10.50
2010,02,17,15,47,10.50
2010,02,17,15,48,10.50
2010,02,17,15,50,10.50
2010,02,17,15,51,10.50
2010,02,17,15,52,10.50
2010,02,17,15,53,10.50
2010,02,17,15,54,10.40
2010,02,17,15,56,10.40
2010,02,17,15,57,10.40
2010,02,17,15,58,10.40
2010,02,17,16,00,10.40
2010,02,17,16,03,10.30
2010,02,17,16,04,10.30
2010,02,17,16,05,10.30
2010,02,17,16,06,10.20
2010,02,17,16,08,10.20
2010,02,17,16,10,10.20
2010,02,17,16,11,10.20
2010,02,17,16,13,10.20
2010,02,17,16,14,10.20
2010,02,17,16,15,10.10
2010,02,17,16,16,10.10
2010,02,17,16,17,10.10
2010,02,17,16,19,10.10
2010,02,17,16,20,10.10
2010,02,17,16,21,10.00
2010,02,17,16,22,10.00
2010,02,17,16,23,10.00
2010,02,17,16,24,9.90
2010,02,17,16,26,9.90
2010,02,17,16,27,9.90
2010,02,17,16,28,9.90
2010,02,17,16,29,9.90
2010,02,17,16,33,9.80
2010,02,17,16,34,9.80
2010,02,17,16,35,9.80
2010,02,17,16,36,9.80
2010,02,17,16,38,9.80
2010,02,17,16,39,9.70
2010,02,17,16,40,9.70
2010,02,17,16,41,9.70
2010,02,17,16,42,9.70
2010,02,17,16,44,9.70
2010,02,17,16,45,9.70
2010,02,17,16,46,9.60
2010,02,17,16,47,9.60
2010,02,17,16,49,9.60
2010,02,17,16,50,9.60
2010,02,17,16,51,9.60
2010,02,17,16,52,9.50
2010,02,17,16,53,9.50
2010,02,17,16,55,9.50
2010,02,17,16,56,9.40
2010,02,17,16,57,9.40
2010,02,17,16,58,9.40
2010,02,17,17,00,9.30
2010,02,17,17,02,9.30
2010,02,17,17,03,9.30
2010,02,17,17,05,9.20
2010,02,17,17,06,9.20
2010,02,17,17,07,9.20
2010,02,17,17,08,9.10
2010,02,17,17,09,9.10
2010,02,17,17,11,9.10
2010,02,17,17,12,9.00
2010,02,17,17,13,9.00
2010,02,17,17,14,8.90
2010,02,17,17,15,8.90
2010,02,17,17,17,8.80
2010,02,17,17,18,8.80
2010,02,17,17,20,8.80
2010,02,17,17,22,8.70
2010,02,17,17,23,8.70
2010,02,17,17,24,8.70
2010,02,17,17,25,8.60
2010,02,17,17,27,8.60
2010,02,17,17,28,8.60
2010,02,17,17,30,8.50
2010,02,17,17,31,8.40
2010,02,17,17,32,8.40
2010,02,17,17,34,8.30
2010,02,17,17,35,8.30
2010,02,17,17,36,8.30
2010,02,17,17,37,8.20
2010,02,17,17,38,8.20
2010,02,17,17,39,8.20
2010,02,17,17,42,8.10
2010,02,17,17,43,8.10
2010,02,17,17,44,8.10
2010,02,17,17,45,8.00
2010,02,17,17,47,8.00
2010,02,17,17,48,8.00
2010,02,17,17,50,7.90
2010,02,17,17,51,7.90
2010,02,17,17,53,7.90
2010,02,17,17,54,7.80
2010,02,17,17,55,7.80
2010,02,17,17,56,7.80
2010,02,17,17,58,7.80
2010,02,17,18,00,7.70
2010,02,17,18,01,7.70
2010,02,17,18,03,7.70
2010,02,17,18,04,7.70
2010,02,17,18,05,7.60
2010,02,17,18,06,7.60
2010,02,17,18,07,7.60
2010,02,17,18,09,7.60
2010,02,17,18,10,7.60
2010,02,17,18,11,7.50
2010,02,17,18,12,7.50
2010,02,17,18,13,7.40
2010,02,17,18,15,7.40
2010,02,17,18,16,7.40
2010,02,17,18,17,7.40
2010,02,17,18,18,7.30
2010,02,17,18,20,7.30
2010,02,17,18,21,7.30
2010,02,17,18,22,7.20
2010,02,17,18,23,7.20
2010,02,17,18,24,7.10
2010,02,17,18,26,7.10
2010,02,17,18,27,7.10
2010,02,17,18,28,7.10
2010,02,17,18,30,7.00
2010,02,17,18,31,7.00
2010,02,17,18,32,7.00
2010,02,17,18,34,7.00
2010,02,17,18,35,6.90
2010,02,17,18,36,6.90
2010,02,17,18,37,6.90
2010,02,17,18,38,6.90
2010,02,17,18,40,6.90
2010,02,17,18,41,6.90
2010,02,17,18,42,6.90
2010,02,17,18,43,6.90
2010,02,17,18,45,6.90
2010,02,17,18,46,6.80
2010,02,17,18,47,6.80
2010,02,17,18,48,6.80
2010,02,17,18,49,6.80
2010,02,17,18,52,6.80
2010,02,17,18,53,6.80
2010,02,17,18,54,6.80
2010,02,17,18,55,6.80
2010,02,17,18,57,6.80
2010,02,17,18,58,6.80
2010,02,17,19,00,6.70
2010,02,17,19,02,6.70
2010,02,17,19,03,6.70
2010,02,17,19,04,6.70
2010,02,17,19,05,6.70
2010,02,17,19,07,6.70
2010,02,17,19,08,6.70
2010,02,17,19,10,6.70
2010,02,17,19,11,6.70
2010,02,17,19,13,6.60
2010,02,17,19,14,6.60
2010,02,17,19,15,6.60
2010,02,17,19,16,6.60
2010,02,17,19,17,6.60
2010,02,17,19,19,6.60
2010,02,17,19,20,6.60
2010,02,17,19,21,6.60
2010,02,17,19,22,6.60
2010,02,17,19,23,6.60
2010,02,17,19,25,6.60
2010,02,17,19,26,6.60
2010,02,17,19,27,6.60
2010,02,17,19,28,6.60
2010,02,17,19,30,6.60
2010,02,17,19,32,6.50
2010,02,17,19,33,6.40
2010,02,17,19,34,6.40
2010,02,17,19,35,6.40
2010,02,17,19,37,6.40
2010,02,17,19,38,6.30
2010,02,17,19,40,6.30
2010,02,17,19,41,6.30
2010,02,17,19,43,6.30
2010,02,17,19,44,6.30
2010,02,17,19,45,6.40
2010,02,17,19,46,6.40
2010,02,17,19,47,6.40
2010,02,17,19,49,6.40
2010,02,17,19,50,6.40
2010,02,17,19,51,6.50
2010,02,17,19,52,6.50
2010,02,17,19,53,6.50
2010,02,17,19,55,6.50
2010,02,17,19,56,6.40
2010,02,17,19,57,6.40
2010,02,17,19,58,6.40
2010,02,17,20,00,6.40
2010,02,17,20,01,6.40
2010,02,17,20,02,6.40
2010,02,17,20,03,6.40
2010,02,17,20,04,6.40
2010,02,17,20,06,6.50
2010,02,17,20,07,6.50
2010,02,17,20,08,6.50
2010,02,17,20,10,6.50
2010,02,17,20,12,6.60
2010,02,17,20,13,6.60
2010,02,17,20,14,6.60
2010,02,17,20,15,6.60
2010,02,17,20,16,6.60
2010,02,17,20,18,6.60
2010,02,17,20,19,6.70
2010,02,17,20,20,6.70
2010,02,17,20,21,6.70
2010,02,17,20,22,6.70
2010,02,17,20,23,6.80
2010,02,17,20,25,6.80
2010,02,17,20,26,6.80
2010,02,17,20,27,6.80
2010,02,17,20,28,6.80
2010,02,17,20,30,6.80
2010,02,17,20,32,6.80
2010,02,17,20,33,6.80
2010,02,17,20,34,6.80
2010,02,17,20,35,6.80
2010,02,17,20,37,6.80
2010,02,17,20,38,6.80
2010,02,17,20,40,6.70
2010,02,17,20,41,6.70
2010,02,17,20,43,6.70
2010,02,17,20,44,6.70
2010,02,17,20,45,6.70
2010,02,17,20,46,6.70
2010,02,17,20,47,6.70
2010,02,17,20,48,6.70
2010,02,17,20,50,6.70
2010,02,17,20,51,6.70
2010,02,17,20,52,6.70
2010,02,17,20,53,6.70
2010,02,17,20,55,6.70
2010,02,17,20,56,6.70
2010,02,17,20,57,6.70
2010,02,17,20,58,6.70
2010,02,17,21,00,6.70
2010,02,17,21,01,6.70
2010,02,17,21,02,6.70
2010,02,17,21,03,6.70
2010,02,17,21,04,6.70
2010,02,17,21,06,6.70
2010,02,17,21,07,6.70
2010,02,17,21,08,6.70
2010,02,17,21,10,6.60
2010,02,17,21,12,6.60
2010,02,17,21,13,6.60
2010,02,17,21,14,6.50
2010,02,17,21,15,6.40
2010,02,17,21,17,6.40
2010,02,17,21,18,6.30
2010,02,17,21,20,6.30
2010,02,17,21,22,6.30
2010,02,17,21,23,6.20
2010,02,17,21,24,6.20
2010,02,17,21,25,6.20
2010,02,17,21,27,6.30
2010,02,17,21,28,6.20
2010,02,17,21,29,6.20
2010,02,17,21,31,6.20
2010,02,17,21,32,6.20
2010,02,17,21,34,6.20
2010,02,17,21,35,6.20
2010,02,17,21,36,6.20
2010,02,17,21,37,6.20
2010,02,17,21,38,6.20
2010,02,17,21,39,6.20
2010,02,17,21,41,6.20
2010,02,17,21,42,6.30
2010,02,17,21,43,6.30
2010,02,17,21,44,6.30
2010,02,17,21,46,6.30
2010,02,17,21,47,6.30
2010,02,17,21,48,6.30
2010,02,17,21,50,6.40
2010,02,17,21,52,6.40
2010,02,17,21,53,6.40
2010,02,17,21,54,6.40
2010,02,17,21,55,6.40
2010,02,17,21,57,6.40
2010,02,17,21,58,6.40
2010,02,17,22,00,6.60
2010,02,17,22,01,6.60
2010,02,17,22,03,6.70
2010,02,17,22,04,6.70
2010,02,17,22,05,6.70
2010,02,17,22,06,6.70
2010,02,17,22,07,6.70
2010,02,17,22,09,6.70
2010,02,17,22,10,6.70
2010,02,17,22,11,6.70
2010,02,17,22,12,6.70
2010,02,17,22,14,6.70
2010,02,17,22,15,6.70
2010,02,17,22,16,6.70
2010,02,17,22,17,6.70
2010,02,17,22,18,6.70
2010,02,17,22,20,6.70
2010,02,17,22,21,6.70
2010,02,17,22,22,6.70
2010,02,17,22,23,6.70
2010,02,17,22,24,6.80
2010,02,17,22,26,6.80
2010,02,17,22,27,6.80
2010,02,17,22,28,6.80
2010,02,17,22,30,6.80
2010,02,17,22,31,6.80
2010,02,17,22,32,6.80
2010,02,17,22,34,6.80
2010,02,17,22,35,6.80
2010,02,17,22,36,6.80
2010,02,17,22,37,6.80
2010,02,17,22,38,6.90
2010,02,17,22,40,6.90
2010,02,17,22,41,6.90
2010,02,17,22,42,6.90
2010,02,17,22,43,7.00
2010,02,17,22,44,7.10
2010,02,17,22,46,7.10
2010,02,17,22,47,7.10
2010,02,17,22,48,7.00
2010,02,17,22,50,7.00
2010,02,17,22,52,7.00
2010,02,17,22,53,7.00
2010,02,17,22,54,7.10
2010,02,17,22,55,7.00
2010,02,17,22,56,7.00
2010,02,17,22,58,7.00
2010,02,17,22,59,7.00
2010,02,17,23,00,6.90
2010,02,17,23,01,6.90
2010,02,17,23,02,6.90
2010,02,17,23,04,6.90
2010,02,17,23,05,6.90
2010,02,17,23,06,6.90
2010,02,17,23,07,6.90
2010,02,17,23,08,6.90
2010,02,17,23,10,6.90
2010,02,17,23,11,6.90
2010,02,17,23,12,6.90
2010,02,17,23,13,6.90
2010,02,17,23,14,6.90
2010,02,17,23,16,6.90
2010,02,17,23,17,6.90
2010,02,17,23,18,6.90
2010,02,17,23,19,6.90
2010,02,17,23,22,6.90